Hourly Data Report for October 01, 2017

All times are specified in Local Standard Time (LST). Add 1 hour to adjust for Daylight Saving Time where and when it is observed.

BRIER ISLAND
NOVA SCOTIA

44°17'09.000" N
66°20'48.000" W
15.80 m
8200604
71988
WVU

Download Data

Hourly Data (October 2017)
Hourly Data Report for October 1, 2017
Temp Definition
°C
Dew Point Temp Definition
°C
Rel Hum Definition
%
Wind Dir Definition
10's deg

Wind Spd Definition
km/h
Visibility Definition
km
Stn Press Definition
kPa
Hmdx Definition


Wind Chill Definition


Weather Definition


TIME
00:00 10.0 3.1 62 33 8   102.36     LegendNANA
01:00 9.5 4.0 69 30 13   102.35     LegendNANA
02:00 9.7 4.4 70 29 17   102.34     LegendNANA
03:00 9.9 5.0 71 29 23   102.31     LegendNANA
04:00 9.7 5.4 74 28 19   102.31     LegendNANA
05:00 9.9 6.2 78 29 20   102.29     LegendNANA
06:00 10.0 5.9 76 29 18   102.27     LegendNANA
07:00 10.7 5.6 71 28 18   102.30     LegendNANA
08:00 11.8 5.8 67 27 16   102.32     LegendNANA
09:00 12.6 6.2 65 28 19   102.33     LegendNANA
10:00 13.0 7.0 67 28 15   102.31     LegendNANA
11:00 13.2 4.1 54 28 15   102.30     LegendNANA
12:00 13.7 5.8 59 27 15   102.24     LegendNANA
13:00 13.5 5.6 59 25 12   102.18     LegendNANA
14:00 13.7 6.1 60 23 14   102.09     LegendNANA
15:00 13.9 5.6 57 23 16   102.03     LegendNANA
16:00 13.6 6.7 63 23 15   101.99     LegendNANA
17:00 13.0 7.1 68 23 17   101.96     LegendNANA
18:00 12.2 7.6 74 22 17   101.93     LegendNANA
19:00 12.3 8.1 75 23 18   101.91     LegendNANA
20:00 12.6 8.4 76 25 19   101.94     LegendNANA
21:00 12.5 9.5 82 26 28   101.96     LegendNANA
22:00 12.4 10.3 87 27 27   101.97     LegendNANA
23:00 12.3 10.6 89 27 27   101.94     LegendNANA

Notes on Data Quality.

Legend

  • E = Estimated
  • M = Missing
  • NA = Not Available
  • ‡ = Partner data that is not subject to review by the National Climate Archives
Date modified: